EW3090 Weather Reports


time (UTC)temp
C
wind
direction
speed
KPH
gust
KPH
rain 1hr
cm
rain 24hr
cm
rain mn
cm
humidity
%
barometer
mb
20260509023026 12 16 0.0 0.0 0.00 0.00 0.00 90 1008.6
20260509021522 12 19 0.0 0.0 0.00 0.00 0.00 90 1008.6
20260509020022 12 13 0.0 0.0 0.00 0.00 0.00 90 1008.5
20260509014534 12 17 0.0 0.0 0.00 0.00 0.00 90 1008.6
20260509013023 12 355 0.0 0.0 0.00 0.00 0.00 90 1008.6
20260509011518 12 17 0.0 0.0 0.00 0.00 0.00 90 1008.5
20260509010017 12 18 0.0 0.0 0.00 0.00 0.00 90 1008.5
20260509004517 12 23 0.0 0.0 0.00 0.00 0.00 90 1008.5
20260509003016 12 24 0.0 0.0 0.00 0.00 0.00 90 1008.6
20260509001512 12 28 0.0 0.0 0.00 0.00 0.00 90 1008.6
20260509000012 12 30 0.0 0.0 0.00 0.00 0.00 90 1008.8
20260508234510 12 14 0.0 0.0 0.00 0.00 0.00 90 1008.8
20260508233010 12 59 0.0 0.0 0.00 0.00 0.00 90 1008.8
20260508231507 12 39 0.0 0.0 0.00 0.00 0.00 89 1008.8
20260508230006 12 21 0.0 0.0 0.00 0.00 0.00 89 1008.7
20260508224505 12 46 0.0 0.0 0.00 0.00 0.00 88 1008.9
20260508223006 13 48 0.0 0.0 0.00 0.00 0.00 88 1009.0
20260508221558 13 53 0.0 0.0 0.00 0.00 0.00 87 1009.2
20260508220119 13 20 0.0 0.0 0.00 0.00 0.00 86 1009.3
20260508214557 13 20 0.0 0.0 0.00 0.00 0.00 85 1009.1
20260508213054 14 19 0.0 0.0 0.00 0.00 0.00 83 1009.1
20260508211549 14 61 0.0 0.0 0.00 0.00 0.00 82 1009.2
20260508210044 15 63 0.0 0.0 0.00 0.00 0.00 79 1009.3
20260508204544 15 53 0.0 0.0 0.00 0.00 0.00 74 1009.5
20260508203045 15 67 0.0 0.0 0.00 0.00 0.00 71 1009.6
20260508201512 16 46 0.0 0.0 0.00 0.00 0.00 67 1009.5
20260508200011 16 70 0.0 1.6 0.00 0.00 0.00 63 1009.7
20260508194506 16 59 0.0 0.0 0.00 0.00 0.00 61 1009.7
20260508193005 17 5 1.6 16.1 0.00 0.00 0.00 59 1009.8
20260508191510 17 62 0.0 22.5 0.00 0.00 0.00 59 1009.8
20260508190008 17 23 0.0 20.9 0.00 0.00 0.00 55 1009.9
20260508184500 18 60 0.0 24.1 0.00 0.00 0.00 56 1009.8
20260508183004 18 9 0.0 16.1 0.00 0.00 0.00 54 1009.9
20260508181610 18 51 0.0 0.0 0.00 0.00 0.00 55 1009.9
20260508180108 18 26 0.0 0.0 0.00 0.00 0.00 55 1010.0
20260508174534 19 48 3.2 22.5 0.00 0.00 0.00 51 1010.2
20260508173022 18 54 0.0 40.2 0.00 0.00 0.00 55 1010.5
20260508171518 18 58 0.0 16.1 0.00 0.00 0.00 54 1010.8
20260508170014 18 38 0.0 1.6 0.00 0.00 0.00 55 1011.1
20260508164511 17 53 0.0 1.6 0.00 0.00 0.00 57 1011.4
20260508163012 17 44 1.6 24.1 0.00 0.00 0.00 56 1011.6
20260508161503 17 49 0.0 0.0 0.00 0.00 0.00 57 1011.8
20260508160105 17 56 0.0 0.0 0.00 0.00 0.00 58 1012.1
20260508160001 17 53 0.0 0.0 0.00 0.00 0.00 59 1012.1
20260508154559 16 33 0.0 0.0 0.00 0.00 0.00 61 1012.2
20260508154557 16 65 0.0 0.0 0.00 0.00 0.00 61 1012.2
20260508153100 16 47 1.6 19.3 0.00 0.00 0.00 61 1012.5
20260508151552 15 41 0.0 0.0 0.00 0.00 0.00 62 1012.5
20260508150048 15 59 6.4 19.3 0.00 0.00 0.00 64 1012.6
20260508144545 14 48 0.0 0.0 0.00 0.00 0.00 62 1012.7
20260508143051 13 40 0.0 0.0 0.00 0.00 0.00 67 1012.9
20260508141554 13 53 14.5 22.5 0.00 0.00 0.00 67 1013.1
20260508140041 13 53 6.4 16.1 0.00 0.00 0.00 67 1013.1
20260508134553 12 61 11.3 17.7 0.00 0.00 0.00 68 1013.0
20260508133036 11 40 0.0 0.0 0.00 0.00 0.00 72 1013.1
20260508131535 11 32 0.0 0.0 0.00 0.00 0.00 74 1013.0
20260508130033 10 17 0.0 0.0 0.00 0.00 0.00 77 1013.1
20260508124535 10 37 0.0 0.0 0.00 0.00 0.00 78 1013.2
20260508123032 10 39 0.0 0.0 0.00 0.00 0.00 79 1013.1
20260508121539 10 39 0.0 0.0 0.00 0.00 0.00 79 1013.4
20260508120028 10 39 0.0 0.0 0.00 0.00 0.00 79 1013.5
20260508114528 9 39 0.0 0.0 0.00 0.00 0.00 79 1013.2
20260508113028 10 39 0.0 0.0 0.00 0.00 0.00 77 1013.2
20260508111527 10 39 0.0 0.0 0.00 0.00 0.00 76 1013.0
20260508110024 9 40 0.0 0.0 0.00 0.00 0.00 77 1012.8
20260508104524 10 42 0.0 0.0 0.00 0.00 0.00 76 1012.8
20260508103033 10 58 0.0 0.0 0.00 0.00 0.00 75 1012.7
20260508101523 10 53 0.0 0.0 0.00 0.00 0.00 72 1012.6
20260508100024 10 60 0.0 0.0 0.00 0.00 0.00 71 1012.6
20260508094519 10 31 0.0 0.0 0.00 0.00 0.00 71 1012.6
20260508093020 10 36 0.0 0.0 0.00 0.00 0.00 71 1012.5
20260508091518 10 36 0.0 0.0 0.00 0.00 0.00 71 1012.5
20260508090021 10 41 0.0 0.0 0.00 0.00 0.00 69 1012.6
20260508084514 10 22 0.0 1.6 0.00 0.00 0.00 68 1012.5
20260508083013 10 24 0.0 17.7 0.00 0.00 0.00 67 1012.6
20260508081534 10 31 0.0 0.0 0.00 0.00 0.00 68 1012.7
20260508080010 10 48 0.0 0.0 0.00 0.00 0.00 68 1012.8
20260508074509 10 48 0.0 0.0 0.00 0.00 0.00 67 1012.8
20260508073009 10 32 0.0 0.0 0.00 0.00 0.00 68 1012.9
20260508071516 10 17 0.0 1.6 0.00 0.00 0.00 68 1012.9
20260508070006 10 15 0.0 0.0 0.00 0.00 0.00 69 1012.9
20260508064510 9 20 0.0 0.0 0.00 0.00 0.00 70 1013.1
20260508063014 9 22 0.0 0.0 0.00 0.00 0.00 71 1013.1
20260508061505 9 26 0.0 0.0 0.00 0.00 0.00 71 1013.1
20260508060002 9 30 0.0 0.0 0.00 0.00 0.00 72 1013.2
20260508054602 9 27 0.0 0.0 0.00 0.00 0.00 73 1013.3
20260508053102 10 34 0.0 0.0 0.00 0.00 0.00 73 1013.3
20260508051559 10 35 0.0 0.0 0.00 0.00 0.00 73 1013.4
20260508050029 10 23 0.0 0.0 0.00 0.00 0.00 74 1013.4
20260508044530 9 9 0.0 1.6 0.00 0.00 0.00 74 1013.4
20260508043027 9 342 0.0 0.0 0.00 0.00 0.00 75 1013.3
20260508041529 9 19 0.0 0.0 0.00 0.00 0.00 75 1013.2
20260508040025 9 17 0.0 0.0 0.00 0.00 0.00 75 1013.2
20260508034525 9 17 0.0 0.0 0.00 0.00 0.00 77 1013.1
20260508033023 9 5 0.0 0.0 0.00 0.00 0.00 77 1013.1
20260508031523 9 344 0.0 0.0 0.00 0.00 0.00 77 1013.0
20260508030021 8 348 0.0 0.0 0.00 0.00 0.00 78 1013.1
20260508024536 8 5 0.0 0.0 0.00 0.00 0.00 78 1013.1